03-05-2023, 00:00:03,     59,    0.0,    5.7,   0.00,   0.00, 1023.6,   85.7, -999.0
03-05-2023, 00:00:13,     59,    0.0,    5.7,   0.00,   0.00, 1023.6,   85.8, -999.0
03-05-2023, 00:00:23,     59,    0.0,    5.7,   0.00,   0.00, 1023.6,   86.0, -999.0
03-05-2023, 00:00:33,     59,    0.0,    5.7,   0.00,   0.00, 1023.5,   86.2, -999.0
03-05-2023, 00:00:43,     59,    0.0,    5.8,   0.00,   0.00, 1023.5,   86.3, -999.0
03-05-2023, 00:00:53,     60,    0.0,    5.7,   0.00,   0.00, 1023.6,   86.3, -999.0
03-05-2023, 00:01:03,     59,    0.0,    5.9,   0.00,   0.00, 1023.5,   86.4, -999.0
03-05-2023, 00:01:13,     59,    0.0,    5.7,   0.00,   0.00, 1023.6,   86.7, -999.0
03-05-2023, 00:01:23,     59,    0.0,    5.6,   0.00,   0.00, 1023.5,   86.7, -999.0
03-05-2023, 00:01:34,     59,    0.0,    5.7,   0.00,   0.00, 1023.5,   86.7, -999.0
03-05-2023, 00:01:42,     59,    0.0,    5.7,   0.00,   0.00, 1023.6,   87.0, -999.0
03-05-2023, 00:01:53,     59,    0.0,    5.5,   0.00,   0.00, 1023.5,   86.9, -999.0
03-05-2023, 00:02:03,     59,    0.0,    5.6,   0.00,   0.00, 1023.6,   87.1, -999.0
03-05-2023, 00:02:13,     59,    0.0,    5.6,   0.00,   0.00, 1023.5,   87.7, -999.0
03-05-2023, 00:02:22,     59,    0.0,    5.7,   0.00,   0.00, 1023.5,   88.2, -999.0
03-05-2023, 00:02:33,     59,    0.0,    5.8,   0.00,   0.00, 1023.5,   88.4, -999.0
03-05-2023, 00:02:43,     59,    0.0,    5.8,   0.00,   0.00, 1023.5,   88.9, -999.0
03-05-2023, 00:02:52,     59,    0.0,    5.8,   0.00,   0.00, 1023.5,   88.7, -999.0
03-05-2023, 00:03:02,     59,    0.0,    5.8,   0.00,   0.00, 1023.5,   88.6, -999.0
03-05-2023, 00:03:13,     62,    0.0,    5.8,   0.00,   0.00, 1023.5,   88.5, -999.0
03-05-2023, 00:03:23,     59,    0.0,    5.8,   0.00,   0.00, 1023.5,   88.1, -999.0
03-05-2023, 00:03:32,     59,    0.0,    5.7,   0.00,   0.00, 1023.5,   87.7, -999.0
03-05-2023, 00:03:42,     59,    0.0,    5.6,   0.00,   0.00, 1023.5,   87.5, -999.0
03-05-2023, 00:03:53,     59,    0.0,    5.6,   0.00,   0.00, 1023.5,   87.5, -999.0
03-05-2023, 00:04:02,     59,    0.0,    5.5,   0.00,   0.00, 1023.5,   87.8, -999.0
03-05-2023, 00:04:12,     59,    0.0,    5.6,   0.00,   0.00, 1023.5,   88.2, -999.0
03-05-2023, 00:04:22,     59,    0.0,    5.6,   0.00,   0.00, 1023.5,   88.2, -999.0
03-05-2023, 00:04:33,     59,    0.0,    5.6,   0.00,   0.00, 1023.5,   88.3, -999.0
03-05-2023, 00:04:42,     59,    0.0,    5.6,   0.00,   0.00, 1023.5,   88.3, -999.0
03-05-2023, 00:04:52,     59,    0.0,    5.7,   0.00,   0.00, 1023.5,   88.7, -999.0
03-05-2023, 00:05:02,     59,    0.0,    5.7,   0.00,   0.00, 1023.5,   88.8, -999.0
03-05-2023, 00:05:12,     59,    0.0,    5.6,   0.00,   0.00, 1023.5,   88.8, -999.0
03-05-2023, 00:05:22,     60,    0.0,    5.6,   0.00,   0.00, 1023.5,   88.6, -999.0
03-05-2023, 00:05:32,     59,    0.0,    5.5,   0.00,   0.00, 1023.5,   88.7, -999.0
03-05-2023, 00:05:42,     59,    0.0,    5.6,   0.00,   0.00, 1023.5,   88.6, -999.0
03-05-2023, 00:05:52,     59,    0.0,    5.7,   0.00,   0.00, 1023.5,   89.3, -999.0
03-05-2023, 00:06:02,     59,    0.0,    5.7,   0.00,   0.00, 1023.5,   89.8, -999.0
03-05-2023, 00:06:12,     59,    0.0,    5.8,   0.00,   0.00, 1023.5,   90.0, -999.0
03-05-2023, 00:06:22,     59,    0.0,    5.7,   0.00,   0.00, 1023.5,   90.2, -999.0
03-05-2023, 00:06:32,     59,    0.0,    5.9,   0.00,   0.00, 1023.5,   89.9, -999.0
03-05-2023, 00:06:42,     59,    0.0,    5.7,   0.00,   0.00, 1023.5,   89.6, -999.0
03-05-2023, 00:06:52,     59,    0.0,    5.7,   0.00,   0.00, 1023.5,   89.3, -999.0
03-05-2023, 00:07:02,     59,    0.0,    5.6,   0.00,   0.00, 1023.5,   89.1, -999.0
03-05-2023, 00:07:12,     59,    0.0,    5.6,   0.00,   0.00, 1023.5,   89.0, -999.0
03-05-2023, 00:07:22,     59,    0.0,    5.5,   0.00,   0.00, 1023.5,   89.2, -999.0
03-05-2023, 00:07:32,     59,    0.0,    5.5,   0.00,   0.00, 1023.5,   89.2, -999.0
03-05-2023, 00:07:42,     59,    0.0,    5.5,   0.00,   0.00, 1023.5,   89.5, -999.0
03-05-2023, 00:07:52,     59,    0.0,    5.6,   0.00,   0.00, 1023.5,   90.0, -999.0
03-05-2023, 00:08:02,     59,    0.0,    5.6,   0.00,   0.00, 1023.5,   90.1, -999.0
03-05-2023, 00:08:12,     59,    0.0,    5.6,   0.00,   0.00, 1023.5,   90.3, -999.0
03-05-2023, 00:08:22,     59,    0.0,    5.5,   0.00,   0.00, 1023.5,   90.3, -999.0
03-05-2023, 00:08:32,     59,    0.0,    5.5,   0.00,   0.00, 1023.5,   90.0, -999.0
03-05-2023, 00:08:42,     59,    0.0,    5.5,   0.00,   0.00, 1023.5,   90.0, -999.0
03-05-2023, 00:08:52,     59,    0.0,    5.6,   0.00,   0.00, 1023.5,   90.4, -999.0
03-05-2023, 00:09:02,     59,    0.0,    5.7,   0.00,   0.00, 1023.5,   91.2, -999.0
03-05-2023, 00:09:12,     59,    0.0,    5.7,   0.00,   0.00, 1023.5,   91.7, -999.0
03-05-2023, 00:09:22,     59,    0.0,    5.6,   0.00,   0.00, 1023.5,   91.3, -999.0
03-05-2023, 00:09:32,     59,    0.0,    5.6,   0.00,   0.00, 1023.5,   90.9, -999.0
03-05-2023, 00:09:42,     59,    0.0,    5.6,   0.00,   0.00, 1023.5,   90.8, -999.0
03-05-2023, 00:09:52,     59,    0.0,    5.6,   0.00,   0.00, 1023.5,   90.8, -999.0
03-05-2023, 00:10:02,     59,    0.0,    5.6,   0.00,   0.00, 1023.5,   90.9, -999.0
03-05-2023, 00:10:12,     59,    0.0,    5.6,   0.00,   0.00, 1023.5,   91.0, -999.0
03-05-2023, 00:10:22,     60,    0.0,    5.6,   0.00,   0.00, 1023.5,   90.9, -999.0
03-05-2023, 00:10:32,     59,    0.0,    5.5,   0.00,   0.00, 1023.5,   90.8, -999.0
03-05-2023, 00:10:42,     59,    0.0,    5.5,   0.00,   0.00, 1023.5,   90.7, -999.0
03-05-2023, 00:10:51,     59,    0.0,    5.6,   0.00,   0.00, 1023.5,   90.9, -999.0
03-05-2023, 00:11:02,     59,    0.0,    5.6,   0.00,   0.00, 1023.5,   91.3, -999.0
03-05-2023, 00:11:12,     59,    0.0,    5.7,   0.00,   0.00, 1023.5,   91.8, -999.0
03-05-2023, 00:11:22,     59,    0.0,    5.6,   0.00,   0.00, 1023.5,   92.1, -999.0
03-05-2023, 00:11:31,     59,    0.0,    5.6,   0.00,   0.00, 1023.5,   91.7, -999.0
03-05-2023, 00:11:42,     59,    0.0,    5.6,   0.00,   0.00, 1023.5,   91.5, -999.0
03-05-2023, 00:11:52,     59,    0.0,    5.6,   0.00,   0.00, 1023.5,   91.6, -999.0
03-05-2023, 00:12:01,     59,    0.0,    5.6,   0.00,   0.00, 1023.5,   91.7, -999.0
03-05-2023, 00:12:11,     59,    0.0,    5.6,   0.00,   0.00, 1023.5,   91.8, -999.0
03-05-2023, 00:12:22,     59,    0.0,    5.6,   0.00,   0.00, 1023.5,   91.8, -999.0
03-05-2023, 00:12:31,     59,    0.0,    5.6,   0.00,   0.00, 1023.5,   92.1, -999.0
03-05-2023, 00:12:41,     59,    0.0,    5.6,   0.00,   0.00, 1023.5,   92.4, -999.0
03-05-2023, 00:12:51,     59,    0.0,    5.7,   0.00,   0.00, 1023.5,   92.5, -999.0
03-05-2023, 00:13:02,     59,    0.0,    5.8,   0.00,   0.00, 1023.5,   92.9, -999.0
03-05-2023, 00:13:11,     59,    0.0,    5.9,   0.00,   0.00, 1023.5,   93.5, -999.0
03-05-2023, 00:13:21,     59,    0.0,    5.9,   0.00,   0.00, 1023.5,   93.2, -999.0
03-05-2023, 00:13:31,     59,    0.0,    6.0,   0.00,   0.00, 1023.5,   93.7, -999.0
03-05-2023, 00:13:41,     59,    0.0,    6.0,   0.00,   0.00, 1023.5,   93.5, -999.0
03-05-2023, 00:13:51,     59,    0.0,    6.0,   0.00,   0.00, 1023.5,   93.3, -999.0
03-05-2023, 00:14:01,     59,    0.0,    6.0,   0.00,   0.00, 1023.5,   93.0, -999.0
03-05-2023, 00:14:11,     59,    0.0,    6.0,   0.00,   0.00, 1023.5,   92.5, -999.0
03-05-2023, 00:14:21,     59,    0.0,    5.9,   0.00,   0.00, 1023.5,   91.9, -999.0
03-05-2023, 00:14:31,     59,    0.0,    5.9,   0.00,   0.00, 1023.5,   91.3, -999.0
03-05-2023, 00:14:41,     59,    0.0,    5.8,   0.00,   0.00, 1023.5,   91.1, -999.0
03-05-2023, 00:14:51,     59,    0.0,    5.8,   0.00,   0.00, 1023.5,   91.0, -999.0
03-05-2023, 00:15:01,     59,    0.0,    6.0,   0.00,   0.00, 1023.5,   91.5, -999.0
03-05-2023, 00:15:11,     59,    0.0,    5.9,   0.00,   0.00, 1023.5,   91.7, -999.0
03-05-2023, 00:15:21,     59,    0.0,    6.0,   0.00,   0.00, 1023.5,   91.9, -999.0
03-05-2023, 00:15:31,     59,    0.0,    6.0,   0.00,   0.00, 1023.5,   91.6, -999.0
03-05-2023, 00:15:43,     59,    0.0,    6.0,   0.00,   0.00, 1023.5,   91.2, -999.0
03-05-2023, 00:15:51,     59,    0.0,    6.0,   0.00,   0.00, 1023.5,   91.0, -999.0
03-05-2023, 00:16:01,     59,    0.0,    5.9,   0.00,   0.00, 1023.5,   90.9, -999.0
03-05-2023, 00:16:11,     59,    0.0,    5.9,   0.00,   0.00, 1023.5,   90.8, -999.0
03-05-2023, 00:16:21,     59,    0.0,    5.9,   0.00,   0.00, 1023.5,   90.4, -999.0
03-05-2023, 00:16:31,     59,    0.0,    5.9,   0.00,   0.00, 1023.5,   90.5, -999.0
03-05-2023, 00:16:41,     59,    0.0,    5.9,   0.00,   0.00, 1023.5,   90.3, -999.0
03-05-2023, 00:16:51,     59,    0.0,    5.9,   0.00,   0.00, 1023.5,   90.2, -999.0
03-05-2023, 00:17:01,     59,    0.0,    5.9,   0.00,   0.00, 1023.5,   90.5, -999.0
03-05-2023, 00:17:11,     59,    0.0,    5.9,   0.00,   0.00, 1023.5,   90.7, -999.0
03-05-2023, 00:17:21,     59,    0.0,    5.8,   0.00,   0.00, 1023.5,   90.3, -999.0
03-05-2023, 00:17:31,     59,    0.0,    5.8,   0.00,   0.00, 1023.5,   90.1, -999.0
03-05-2023, 00:17:41,     60,    0.0,    5.9,   0.00,   0.00, 1023.5,   90.3, -999.0
03-05-2023, 00:17:51,     59,    0.0,    5.9,   0.00,   0.00, 1023.6,   90.7, -999.0
03-05-2023, 00:18:01,     59,    0.0,    5.9,   0.00,   0.00, 1023.5,   91.0, -999.0
03-05-2023, 00:18:11,     59,    0.0,    5.9,   0.00,   0.00, 1023.6,   90.8, -999.0
03-05-2023, 00:18:21,     59,    0.0,    5.9,   0.00,   0.00, 1023.5,   90.9, -999.0
03-05-2023, 00:18:31,     59,    0.0,    5.9,   0.00,   0.00, 1023.6,   90.8, -999.0
03-05-2023, 00:18:41,     59,    0.0,    5.8,   0.00,   0.00, 1023.6,   90.3, -999.0
03-05-2023, 00:18:51,     59,    0.0,    5.8,   0.00,   0.00, 1023.5,   89.9, -999.0
03-05-2023, 00:19:01,     59,    0.0,    5.7,   0.00,   0.00, 1023.6,   89.8, -999.0
03-05-2023, 00:19:11,     59,    0.0,    5.6,   0.00,   0.00, 1023.5,   89.9, -999.0
03-05-2023, 00:19:21,     59,    0.0,    5.8,   0.00,   0.00, 1023.6,   89.9, -999.0
03-05-2023, 00:19:31,     59,    0.0,    5.8,   0.00,   0.00, 1023.5,   90.1, -999.0
03-05-2023, 00:19:41,     59,    0.0,    5.9,   0.00,   0.00, 1023.6,   90.8, -999.0
03-05-2023, 00:19:51,     59,    0.0,    6.1,   0.00,   0.00, 1023.6,   91.4, -999.0
03-05-2023, 00:20:01,     59,    0.0,    6.0,   0.00,   0.00, 1023.5,   91.8, -999.0
03-05-2023, 00:20:11,     59,    0.0,    6.1,   0.00,   0.00, 1023.6,   91.8, -999.0
03-05-2023, 00:20:21,     59,    0.0,    6.2,   0.00,   0.00, 1023.5,   91.6, -999.0
03-05-2023, 00:20:30,     59,    0.0,    6.3,   0.00,   0.00, 1023.5,   91.4, -999.0
03-05-2023, 00:20:41,     59,    0.0,    6.3,   0.00,   0.00, 1023.5,   91.3, -999.0
03-05-2023, 00:20:51,     59,    0.0,    6.2,   0.00,   0.00, 1023.5,   91.0, -999.0
03-05-2023, 00:21:00,     59,    0.0,    6.2,   0.00,   0.00, 1023.5,   90.6, -999.0
03-05-2023, 00:21:10,     59,    0.0,    6.2,   0.00,   0.00, 1023.5,   90.0, -999.0
03-05-2023, 00:21:21,     59,    0.0,    6.2,   0.00,   0.00, 1023.6,   89.3, -999.0
03-05-2023, 00:21:31,     59,    0.0,    6.1,   0.00,   0.00, 1023.5,   88.7, -999.0
03-05-2023, 00:21:40,     59,    0.0,    6.1,   0.00,   0.00, 1023.6,   88.6, -999.0
03-05-2023, 00:21:50,     59,    0.0,    6.2,   0.00,   0.00, 1023.5,   89.0, -999.0
03-05-2023, 00:22:01,     59,    0.0,    6.3,   0.00,   0.00, 1023.6,   89.2, -999.0
03-05-2023, 00:22:10,     59,    0.0,    6.3,   0.00,   0.00, 1023.5,   89.0, -999.0
03-05-2023, 00:22:20,     57,    0.0,    6.1,   0.00,   0.00, 1023.5,   88.5, -999.0
03-05-2023, 00:22:30,     59,    0.0,    6.1,   0.00,   0.00, 1023.5,   88.4, -999.0
03-05-2023, 00:22:40,     59,    0.0,    6.1,   0.00,   0.00, 1023.5,   88.5, -999.0
03-05-2023, 00:22:50,     59,    0.0,    6.1,   0.00,   0.00, 1023.5,   88.6, -999.0
03-05-2023, 00:23:00,     59,    0.0,    6.1,   0.00,   0.00, 1023.5,   88.3, -999.0
03-05-2023, 00:23:11,     59,    0.0,    6.1,   0.00,   0.00, 1023.5,   88.3, -999.0
03-05-2023, 00:23:20,     59,    0.0,    6.1,   0.00,   0.00, 1023.5,   88.5, -999.0
03-05-2023, 00:23:30,     59,    0.0,    6.2,   0.00,   0.00, 1023.5,   89.0, -999.0
03-05-2023, 00:23:40,     59,    0.0,    6.2,   0.00,   0.00, 1023.5,   88.9, -999.0
03-05-2023, 00:23:50,     59,    0.0,    6.1,   0.00,   0.00, 1023.5,   88.2, -999.0
03-05-2023, 00:24:00,     60,    0.0,    6.1,   0.00,   0.00, 1023.5,   88.0, -999.0
03-05-2023, 00:24:10,     59,    0.0,    6.0,   0.00,   0.00, 1023.5,   88.0, -999.0
03-05-2023, 00:24:20,     59,    0.0,    5.9,   0.00,   0.00, 1023.5,   88.2, -999.0
03-05-2023, 00:24:30,     59,    0.0,    6.1,   0.00,   0.00, 1023.5,   88.2, -999.0
03-05-2023, 00:24:40,     59,    0.0,    6.0,   0.00,   0.00, 1023.5,   87.6, -999.0
03-05-2023, 00:24:50,     59,    0.0,    5.7,   0.00,   0.00, 1023.5,   87.4, -999.0
03-05-2023, 00:25:00,     59,    0.0,    5.9,   0.00,   0.00, 1023.5,   87.5, -999.0
03-05-2023, 00:25:10,     59,    0.0,    6.0,   0.00,   0.00, 1023.5,   88.0, -999.0
03-05-2023, 00:25:20,     59,    0.0,    6.0,   0.00,   0.00, 1023.5,   88.4, -999.0
03-05-2023, 00:25:30,     59,    0.0,    6.0,   0.00,   0.00, 1023.5,   88.5, -999.0
03-05-2023, 00:25:40,     59,    0.0,    5.9,   0.00,   0.00, 1023.5,   88.3, -999.0
03-05-2023, 00:25:50,     59,    0.0,    5.8,   0.00,   0.00, 1023.5,   87.9, -999.0
03-05-2023, 00:26:00,     59,    0.0,    5.9,   0.00,   0.00, 1023.5,   88.0, -999.0
03-05-2023, 00:26:10,     59,    0.0,    6.0,   0.00,   0.00, 1023.5,   88.6, -999.0
03-05-2023, 00:26:20,     59,    0.0,    6.0,   0.00,   0.00, 1023.5,   88.7, -999.0
03-05-2023, 00:26:30,     59,    0.0,    6.0,   0.00,   0.00, 1023.5,   88.9, -999.0
03-05-2023, 00:26:40,     59,    0.0,    5.9,   0.00,   0.00, 1023.5,   88.8, -999.0
03-05-2023, 00:26:50,     59,    0.0,    6.0,   0.00,   0.00, 1023.5,   88.8, -999.0
03-05-2023, 00:27:00,     59,    0.0,    6.0,   0.00,   0.00, 1023.5,   88.6, -999.0
03-05-2023, 00:27:10,     59,    0.0,    5.9,   0.00,   0.00, 1023.5,   88.2, -999.0
03-05-2023, 00:27:20,     61,    0.0,    5.7,   0.00,   0.00, 1023.5,   87.8, -999.0
03-05-2023, 00:27:30,     59,    0.0,    5.7,   0.00,   0.00, 1023.5,   87.8, -999.0
03-05-2023, 00:27:40,     59,    0.0,    5.6,   0.00,   0.00, 1023.6,   87.8, -999.0
03-05-2023, 00:27:50,     59,    0.0,    5.7,   0.00,   0.00, 1023.5,   88.0, -999.0
03-05-2023, 00:28:00,     59,    0.0,    5.6,   0.00,   0.00, 1023.5,   88.3, -999.0
03-05-2023, 00:28:10,     59,    0.0,    5.6,   0.00,   0.00, 1023.5,   88.5, -999.0
03-05-2023, 00:28:20,     59,    0.0,    5.7,   0.00,   0.00, 1023.6,   89.1, -999.0
03-05-2023, 00:28:30,     56,    0.0,    5.7,   0.00,   0.00, 1023.6,   89.3, -999.0
03-05-2023, 00:28:40,     59,    0.0,    5.7,   0.00,   0.00, 1023.5,   89.3, -999.0
03-05-2023, 00:28:49,     59,    0.0,    5.6,   0.00,   0.00, 1023.6,   89.5, -999.0
03-05-2023, 00:29:00,     59,    0.0,    5.6,   0.00,   0.00, 1023.5,   89.3, -999.0
03-05-2023, 00:29:10,     59,    0.0,    5.5,   0.00,   0.00, 1023.5,   89.2, -999.0
03-05-2023, 00:29:20,     59,    0.0,    5.6,   0.00,   0.00, 1023.5,   89.5, -999.0
03-05-2023, 00:29:29,     59,    0.0,    5.6,   0.00,   0.00, 1023.5,   90.0, -999.0
03-05-2023, 00:29:40,     59,    0.0,    5.8,   0.00,   0.00, 1023.5,   90.3, -999.0
03-05-2023, 00:29:50,     59,    0.0,    5.7,   0.00,   0.00, 1023.5,   90.4, -999.0
03-05-2023, 00:29:59,     59,    0.0,    5.6,   0.00,   0.00, 1023.5,   89.9, -999.0
03-05-2023, 00:30:09,     59,    0.0,    5.6,   0.00,   0.00, 1023.6,   89.6, -999.0
03-05-2023, 00:30:20,     60,    0.0,    5.5,   0.00,   0.00, 1023.6,   89.6, -999.0
03-05-2023, 00:30:29,     59,    0.0,    5.4,   0.00,   0.00, 1023.5,   89.5, -999.0
03-05-2023, 00:30:39,     59,    0.0,    5.5,   0.00,   0.00, 1023.5,   89.7, -999.0
03-05-2023, 00:30:51,     59,    0.0,    5.5,   0.00,   0.00, 1023.5,   90.0, -999.0
03-05-2023, 00:31:00,     59,    0.0,    5.4,   0.00,   0.00, 1023.5,   90.1, -999.0
03-05-2023, 00:31:09,     59,    0.0,    5.4,   0.00,   0.00, 1023.6,   90.3, -999.0
03-05-2023, 00:31:19,     59,    0.0,    5.4,   0.00,   0.00, 1023.5,   90.7, -999.0
03-05-2023, 00:31:30,     59,    0.0,    5.4,   0.00,   0.00, 1023.5,   90.6, -999.0
03-05-2023, 00:31:39,     59,    0.0,    5.4,   0.00,   0.00, 1023.5,   90.6, -999.0
03-05-2023, 00:31:49,     59,    0.0,    5.4,   0.00,   0.00, 1023.6,   90.7, -999.0
03-05-2023, 00:31:59,     59,    0.0,    5.2,   0.00,   0.00, 1023.5,   90.9, -999.0
03-05-2023, 00:32:09,     59,    0.0,    5.3,   0.00,   0.00, 1023.6,   91.3, -999.0
03-05-2023, 00:32:19,     59,    0.0,    5.2,   0.00,   0.00, 1023.6,   91.3, -999.0
03-05-2023, 00:32:29,     59,    0.0,    5.3,   0.00,   0.00, 1023.6,   91.4, -999.0
03-05-2023, 00:32:39,     59,    0.0,    5.3,   0.00,   0.00, 1023.6,   91.5, -999.0
03-05-2023, 00:32:49,     59,    0.0,    5.3,   0.00,   0.00, 1023.6,   91.7, -999.0
03-05-2023, 00:32:59,     59,    0.0,    5.3,   0.00,   0.00, 1023.6,   91.7, -999.0
03-05-2023, 00:33:09,     59,    0.0,    5.3,   0.00,   0.00, 1023.6,   91.9, -999.0
03-05-2023, 00:33:19,     59,    0.0,    5.3,   0.00,   0.00, 1023.6,   92.2, -999.0
03-05-2023, 00:33:29,     59,    0.0,    5.2,   0.00,   0.00, 1023.5,   92.5, -999.0
03-05-2023, 00:33:39,     59,    0.0,    5.3,   0.00,   0.00, 1023.5,   93.2, -999.0
03-05-2023, 00:33:49,     59,    0.0,    5.2,   0.00,   0.00, 1023.6,   93.5, -999.0
03-05-2023, 00:33:59,     59,    0.0,    5.3,   0.00,   0.00, 1023.5,   93.7, -999.0
03-05-2023, 00:34:09,     59,    0.0,    5.3,   0.00,   0.00, 1023.6,   93.6, -999.0
03-05-2023, 00:34:19,     59,    0.0,    5.4,   0.00,   0.00, 1023.5,   93.6, -999.0
03-05-2023, 00:34:29,     59,    0.0,    5.4,   0.00,   0.00, 1023.5,   93.6, -999.0
03-05-2023, 00:34:39,     59,    0.0,    5.4,   0.00,   0.00, 1023.5,   93.7, -999.0
03-05-2023, 00:34:49,     59,    0.0,    5.4,   0.00,   0.00, 1023.5,   93.8, -999.0
03-05-2023, 00:34:59,     59,    0.0,    5.4,   0.00,   0.00, 1023.5,   93.8, -999.0
03-05-2023, 00:35:09,     59,    0.0,    5.3,   0.00,   0.00, 1023.5,   93.9, -999.0
03-05-2023, 00:35:19,     59,    0.0,    5.4,   0.00,   0.00, 1023.5,   94.1, -999.0
03-05-2023, 00:35:29,     59,    0.0,    5.4,   0.00,   0.00, 1023.5,   94.2, -999.0
03-05-2023, 00:35:39,     59,    0.0,    5.3,   0.00,   0.00, 1023.5,   94.3, -999.0
03-05-2023, 00:35:49,     59,    0.0,    5.4,   0.00,   0.00, 1023.5,   95.1, -999.0
03-05-2023, 00:35:59,     59,    0.0,    5.5,   0.00,   0.00, 1023.5,   95.3, -999.0
03-05-2023, 00:36:09,     59,    0.0,    5.5,   0.00,   0.00, 1023.5,   95.4, -999.0
03-05-2023, 00:36:19,     59,    0.0,    5.3,   0.00,   0.00, 1023.5,   95.2, -999.0
03-05-2023, 00:36:29,     59,    0.0,    5.5,   0.00,   0.00, 1023.5,   95.5, -999.0
03-05-2023, 00:36:39,     59,    0.0,    5.6,   0.00,   0.00, 1023.5,   95.9, -999.0
03-05-2023, 00:36:49,     59,    0.0,    5.6,   0.00,   0.00, 1023.5,   95.7, -999.0
03-05-2023, 00:36:59,     59,    0.0,    5.6,   0.00,   0.00, 1023.5,   95.5, -999.0
03-05-2023, 00:37:09,     59,    0.0,    5.5,   0.00,   0.00, 1023.5,   95.2, -999.0
03-05-2023, 00:37:19,     59,    0.0,    5.5,   0.00,   0.00, 1023.5,   95.0, -999.0
03-05-2023, 00:37:29,     59,    0.0,    5.6,   0.00,   0.00, 1023.5,   95.2, -999.0
03-05-2023, 00:37:39,     59,    0.0,    5.7,   0.00,   0.00, 1023.5,   95.3, -999.0
03-05-2023, 00:37:48,     59,    0.0,    5.6,   0.00,   0.00, 1023.5,   95.5, -999.0
03-05-2023, 00:37:59,     59,    0.0,    5.5,   0.00,   0.00, 1023.5,   95.4, -999.0
03-05-2023, 00:38:09,     59,    0.0,    5.7,   0.00,   0.00, 1023.5,   95.1, -999.0
03-05-2023, 00:38:19,     59,    0.0,    5.7,   0.00,   0.00, 1023.5,   94.8, -999.0
03-05-2023, 00:38:28,     59,    0.0,    5.7,   0.00,   0.00, 1023.5,   94.5, -999.0
03-05-2023, 00:38:39,     59,    0.0,    5.6,   0.00,   0.00, 1023.5,   94.4, -999.0
03-05-2023, 00:38:49,     59,    0.0,    5.8,   0.00,   0.00, 1023.4,   94.7, -999.0
03-05-2023, 00:38:58,     59,    0.0,    5.8,   0.00,   0.00, 1023.5,   95.0, -999.0
03-05-2023, 00:39:08,     59,    0.0,    5.8,   0.00,   0.00, 1023.5,   94.9, -999.0
03-05-2023, 00:39:19,     59,    0.0,    5.9,   0.00,   0.00, 1023.4,   94.6, -999.0
03-05-2023, 00:39:28,     59,    0.0,    5.9,   0.00,   0.00, 1023.5,   94.3, -999.0
03-05-2023, 00:39:38,     59,    0.0,    5.9,   0.00,   0.00, 1023.4,   94.2, -999.0
03-05-2023, 00:39:48,     59,    0.0,    5.9,   0.00,   0.00, 1023.5,   93.9, -999.0
03-05-2023, 00:39:59,     59,    0.0,    5.9,   0.00,   0.00, 1023.5,   94.1, -999.0
03-05-2023, 00:40:08,     59,    0.0,    5.9,   0.00,   0.00, 1023.4,   93.8, -999.0
03-05-2023, 00:40:18,     59,    0.0,    6.0,   0.00,   0.00, 1023.5,   93.4, -999.0
03-05-2023, 00:40:29,     59,    0.0,    6.0,   0.00,   0.00, 1023.5,   93.3, -999.0
03-05-2023, 00:40:38,     59,    0.0,    6.0,   0.00,   0.00, 1023.5,   93.2, -999.0
03-05-2023, 00:40:48,     60,    0.0,    6.0,   0.00,   0.00, 1023.5,   93.0, -999.0
03-05-2023, 00:40:58,     59,    0.0,    6.0,   0.00,   0.00, 1023.4,   92.5, -999.0
03-05-2023, 00:41:09,     59,    0.0,    6.0,   0.00,   0.00, 1023.5,   92.2, -999.0
03-05-2023, 00:41:18,     59,    0.0,    6.0,   0.00,   0.00, 1023.5,   92.1, -999.0
03-05-2023, 00:41:28,     59,    0.0,    6.1,   0.00,   0.00, 1023.4,   91.9, -999.0
03-05-2023, 00:41:38,     59,    0.0,    6.1,   0.00,   0.00, 1023.4,   91.7, -999.0
03-05-2023, 00:41:48,     59,    0.0,    6.1,   0.00,   0.00, 1023.5,   91.7, -999.0
03-05-2023, 00:41:58,     59,    0.0,    6.1,   0.00,   0.00, 1023.4,   91.6, -999.0
03-05-2023, 00:42:08,     59,    0.0,    6.2,   0.00,   0.00, 1023.4,   91.4, -999.0
03-05-2023, 00:42:18,     59,    0.0,    6.1,   0.00,   0.00, 1023.4,   91.1, -999.0
03-05-2023, 00:42:28,     59,    0.0,    6.1,   0.00,   0.00, 1023.4,   91.0, -999.0
03-05-2023, 00:42:38,     59,    0.0,    6.1,   0.00,   0.00, 1023.4,   90.9, -999.0
03-05-2023, 00:42:48,     59,    0.0,    6.1,   0.00,   0.00, 1023.4,   90.8, -999.0
03-05-2023, 00:42:58,     59,    0.0,    6.1,   0.00,   0.00, 1023.4,   90.7, -999.0
03-05-2023, 00:43:08,     85,    0.0,    6.1,   0.00,   0.00, 1023.4,   90.6, -999.0
03-05-2023, 00:43:18,     85,    0.0,    6.1,   0.00,   0.00, 1023.4,   90.6, -999.0
03-05-2023, 00:43:28,     85,    0.0,    6.0,   0.00,   0.00, 1023.4,   90.2, -999.0
03-05-2023, 00:43:38,     85,    0.0,    6.1,   0.00,   0.00, 1023.4,   90.1, -999.0
03-05-2023, 00:43:48,     85,    0.0,    6.1,   0.00,   0.00, 1023.4,   90.0, -999.0
03-05-2023, 00:43:58,     85,    0.0,    6.1,   0.00,   0.00, 1023.4,   89.7, -999.0
03-05-2023, 00:44:08,     92,    0.0,    6.0,   0.00,   0.00, 1023.4,   89.7, -999.0
03-05-2023, 00:44:18,     92,    0.0,    6.0,   0.00,   0.00, 1023.4,   89.7, -999.0
03-05-2023, 00:44:28,     93,    0.0,    6.1,   0.00,   0.00, 1023.4,   89.7, -999.0
03-05-2023, 00:44:38,    101,    0.0,    6.1,   0.00,   0.00, 1023.4,   89.6, -999.0
03-05-2023, 00:44:48,     92,    0.0,    6.1,   0.00,   0.00, 1023.4,   89.5, -999.0
03-05-2023, 00:44:58,     92,    0.0,    6.1,   0.00,   0.00, 1023.4,   89.2, -999.0
03-05-2023, 00:45:08,     92,    0.0,    6.0,   0.00,   0.00, 1023.4,   89.1, -999.0
03-05-2023, 00:45:18,     92,    0.0,    6.0,   0.00,   0.00, 1023.4,   88.9, -999.0
03-05-2023, 00:45:28,     92,    0.0,    6.0,   0.00,   0.00, 1023.3,   88.9, -999.0
03-05-2023, 00:45:38,     92,    0.0,    6.0,   0.00,   0.00, 1023.3,   89.0, -999.0
03-05-2023, 00:45:48,     92,    0.0,    6.0,   0.00,   0.00, 1023.3,   89.3, -999.0
03-05-2023, 00:45:58,     92,    0.0,    6.0,   0.00,   0.00, 1023.3,   89.3, -999.0
03-05-2023, 00:46:08,     92,    0.0,    6.1,   0.00,   0.00, 1023.4,   89.6, -999.0
03-05-2023, 00:46:18,     93,    0.0,    6.1,   0.00,   0.00, 1023.4,   89.6, -999.0
03-05-2023, 00:46:28,     92,    0.0,    6.0,   0.00,   0.00, 1023.3,   89.4, -999.0
03-05-2023, 00:46:38,     93,    0.0,    6.0,   0.00,   0.00, 1023.4,   89.1, -999.0
03-05-2023, 00:46:47,     93,    0.0,    6.0,   0.00,   0.00, 1023.4,   89.0, -999.0